DECAYED

IRIDIUM 33 DEB, 35296 (Decayed)

Orbit data source: Space-Track

IRIDIUM 33 DEB, 35296 was space debris in LEO originally from a launch on Sun, 14 Sep 1997 UTC launched from the Tyuratam Missile And Space Complex (TTMTR). The debris from Iridium 33, an American commercial communications satellite, has been tracked extensively since its accidental collision with the defunct Russian satellite Cosmos 2251 in 2009. This event, occurring at high speed in low Earth orbit (LEO), generated thousands of pieces of space debris, significantly increasing the risk of further collisions. The Iridium 33 debris cloud has impacted space traffic management and orbital debris mitigation strategies, making it a subject of ongoing study in space situational awareness.

Not visible in the next 10 days
Identifier
35296, 1997-051PL
Orbit
Decayed
Country
Flag of USUS
Related business
Manufacturer
Unknown
Mission
Decayed spacecraft
Bus & Motor
Unknown
Mass
Unknown
Launch date (UTC)
1997-09-14 (28 years ago)
Launch vehicle
Unknown
Launch site
Tyuratam Missile And Space Complex (TTMTR)
Object type
Payload
Rocket body
Debris
Shape & HBR
Unknown shape, 0.1 m
Radar Cross Section
Small (<0.1 m²)

Expand to show TLE details & history
Last TLE update: 1 year ago

TLE from 1 year ago
0 IRIDIUM 33 DEB
1 35296U 97051PL  25015.93851090  .00575328  00000-0  84651-2 0  9991
2 35296  86.2927  95.1831 0010146 303.3669  56.6620 15.53425324830268
Epoch: 2025-01-15T22:31Z
TLE epoch observation values (Epoch: 2025-01-15T22:31:27.341Z)
Latitude
-0.00009°
Longitude
1.6955°
Altitude
406.171 km
Speed
7.669 km/s
True Right ascension
06h 20m 43s
True Declination
0° 00' 00"
Sunlit
Object was in full shadow at epoch
Visualization orbit readout
Latitude
Unknown
Longitude
Unknown
Altitude
Unknown
Speed
Unknown
Apparent Right ascension
Unknown
Apparent Declination
Unknown
Sunlit
N/A
Visualization observer readout
Local Sidereal Time
11:11:43
Azimuth
Unknown
Elevation
Unknown
Doppler factor
Unknown
Orbital elements
Apogee altitude
410.415 km
Perigee altitude
396.654 km
Semi-major axis
6,781.671 km
Eccentricity
0.00101
Inclination
86.2927°
RAAN
95.1831°
Arg. of periapsis
303.3669°
True anomaly
56.7592°
Mean anomaly
56.662°
Eccentric anomaly
56.71059°
Mean motion
3.88632 °/min
Orbital period
92.63 mins
BSTAR
0.0084651
Loading maneuver chart data...
Computing Atmospheric mass density...
Loading historical data...
Loading historical data...
Loading historical data...
Loading historical data...
Loading historical data...
Loading historical data...
Loading historical data...

Documentation

Showing up to 5 results
|